Regional Weather Roundup
Issued by NWS

Home | Current Version | Previous Version | Graphics & Text | Print | Product List | Glossary On
Versions: 1 2 3 4 5 6 7 8 9 10 11 12 13 14 15 16 17 18 19 20 21 22 23 24 25 26 27 28 29 30 31 32 33 34 35 36 37 38 39 40 41 42 43 44 45 46 47 48 49 50
000
ASUS43 KOAX 221302
RWRNE

WEATHER ROUNDUP FOR NEBRASKA
NATIONAL WEATHER SERVICE OMAHA NE
800 AM CDT SUN OCT 22 2017

NOTES: SATELLITE DATA IS BEING USED TO AUGMENT CLOUD COVER ABOVE
       12000 FEET.
       "FAIR" INDICATES FEW OR NO CLOUDS BELOW 12,000 FEET WITH NO
       SIGNIFICANT WEATHER AND/OR OBSTRUCTIONS TO VISIBILITY.


NEZ001>004-019>022-054>056-221400-
NEBRASKA PANHANDLE

CITY           SKY/WX    TMP DP  RH WIND       PRES   REMARKS
SCOTTSBLUFF    CLEAR     32  19  58 CALM      30.07F
ALLIANCE       CLEAR     28  18  66 SW12      30.06R WCI  18
CHADRON        CLEAR     30  15  53 SW3       30.02F
GORDON         FAIR      32  20  62 W8        30.03S WCI  25
KIMBALL        CLEAR     35  22  57 SW12      30.13R WCI  27
SIDNEY         CLOUDY    27  19  72 S9        30.14R WCI  18
$$

NEZ057>060-069>072-079>082-221400-
SOUTHWEST NEBRASKA

CITY           SKY/WX    TMP DP  RH WIND       PRES   REMARKS
NORTH PLATTE   CLEAR     25  23  92 CALM      30.14R
IMPERIAL       CLEAR     30  22  72 SW7       30.16R WCI  23
LEXINGTON      CLEAR     29  25  84 NW3       30.13F
MCCOOK         CLEAR     30  23  75 W6        30.17S WCI  24
OGALLALA       CLEAR     31  24  76 SW5       30.14R WCI  26
$$

NEZ005>010-023>029-035>040-094-221400-
NORTH CENTRAL NEBRASKA

CITY           SKY/WX    TMP DP  RH WIND       PRES   REMARKS
VALENTINE      CLEAR     29  25  85 SW8       30.03S WCI  21
AINSWORTH      CLEAR     32  27  81 S7        30.06S WCI  26
BROKEN BOW     CLEAR     31  25  78 CALM      30.10S
O`NEILL        CLEAR     34  31  89 SW8       30.08S WCI  27
ORD            CLEAR     27  25  92 CALM      30.10S
THEDFORD       CLEAR     33  25  70 CALM      30.10R
$$

NEZ041-046>049-061>064-073>077-083>087-221400-
SOUTH CENTRAL NEBRASKA

CITY           SKY/WX    TMP DP  RH WIND       PRES   REMARKS
GRAND ISLAND   CLEAR     33  31  92 W3        30.12F
AURORA         CLEAR     34  32  91 W6        30.11F WCI  29
HASTINGS       CLEAR     36  28  73 SW3       30.12F
HEBRON         CLEAR     36  34  93 CALM      30.13S
HOLDREGE       CLEAR     31  26  81 W5        30.13S WCI  27
KEARNEY        CLEAR     35  28  75 SW6       30.13S WCI  30
YORK           CLEAR     34  34 100 W7        30.11F WCI  28
$$

NEZ011>018-030>034-042>045-221400-
NORTHEAST NEBRASKA

CITY           SKY/WX    TMP DP  RH WIND       PRES   REMARKS
NORFOLK        CLEAR     32  30  92 W3        30.08F
ALBION         CLEAR     32  30  94 CALM      30.11R
BLAIR          CLEAR     42  37  82 W5        30.09S
COLUMBUS       CLEAR     31  29  92 CALM      30.11F
FREMONT        CLEAR     37  36  96 W3        30.11S
TEKAMAH        CLEAR     38  34  85 W6        30.09S WCI  33
WAYNE          CLEAR     34  32  91 S6        30.08S WCI  29
$$

NEZ050>053-065>068-078-088>093-221400-
SOUTHEAST NEBRASKA

CITY           SKY/WX    TMP DP  RH WIND       PRES   REMARKS
LINCOLN        CLEAR     41  35  79 SW3       30.13S
OMAHA EPPLEY   PTCLDY    44  36  73 NW6       30.10R
BEATRICE       CLEAR     38  37  94 W3        30.12F
FALLS CITY     CLEAR     45  40  82 W8        30.09R
NEBRASKA CITY  CLEAR     44  41  90 W9        30.10R
PLATTSMOUTH    CLEAR     43  39  86 W9        30.09S
$$

NEZ044-045-051>053-067-221400-
OMAHA AREA

CITY           SKY/WX    TMP DP  RH WIND       PRES   REMARKS
OMAHA EPPLEY   PTCLDY    44  36  73 NW6       30.10R
BLAIR          CLEAR     42  37  82 W5        30.09S
FREMONT        CLEAR     37  36  96 W3        30.11S
MILLARD        CLEAR     43  39  87 CALM      30.10S
OFFUTT AFB     CLEAR     41  38  87 NW5       30.09S
PLATTSMOUTH    CLEAR     43  39  86 W9        30.09S
WAHOO          FAIR      38  34  85 CALM      30.11S
$$




USA.gov is the U.S. government's official web portal to all federal, state and local government web resources and services.